SL-6 R/B(2), 12384

Orbit data source: Space-Track

SL-6 R/B(2), 12384 is space debris in HEO originally from a launch on Tue, 31 Mar 1981 UTC launched from the Plesetsk Missile And Space Complex (PKMTR). Debris objects in space refer to the collection of defunct objects orbiting the Earth. Examples of debris include non-operational satellites, rocket bodies, and fragments generated from explosions, collisions, or faulty payload assembly.

Loading next visibility...
Identifier
12384, 1981-031D
Orbit
HEO
Country
Flag of CISCIS
Related business
Manufacturer
NPO Energiya
Mission
Spacecraft
Bus & Motor
BLOK-L, Unknown motor
Mass
~900 kg wet, ~900 kg dry
Launch date (UTC)
1981-03-31 (45 years ago)
Launch vehicle
Unknown
Launch site
Plesetsk Missile And Space Complex (PKMTR)
Object type
Payload
Rocket body
Debris
Shape & HBR
Unknown
Radar Cross Section
Large (>1 m²)

Expand to show TLE details & history
Last TLE update: 13 hours ago

TLE from 13 hours ago
0 SL-6 R/B(2)
1 12384U 81031D   25354.20006799 -.00000687  00000-0  00000-0 0  9995
2 12384  67.6234  82.0885 6189020   3.0720 359.4672  2.03542020332470
Epoch: 2025-12-20T04:48Z
TLE epoch observation values (Epoch: 2025-12-20T04:48:05.874Z)
Latitude
0.00021°
Longitude
-78.95264°
Altitude
3,637.744 km
Speed
8.028 km/s
True Right ascension
05h 28m 24s
True Declination
0° 00' 01"
Sunlit
Object was in full shadow at epoch
Visualization orbit readout
Latitude
Unknown
Longitude
Unknown
Altitude
Unknown
Speed
Unknown
Apparent Right ascension
Unknown
Apparent Declination
Unknown
Sunlit
N/A
Visualization observer readout
Local Sidereal Time
16:45:10
Azimuth
Unknown
Elevation
Unknown
Doppler factor
Unknown
Orbital elements
Apogee altitude
36,198.415 km
Perigee altitude
3,644.606 km
Semi-major axis
26,299.648 km
Eccentricity
0.6189
Inclination
67.6234°
RAAN
82.0885°
Arg. of periapsis
3.072°
True anomaly
357.11942°
Mean anomaly
359.4672°
Eccentric anomaly
358.60216°
Mean motion
0.50888 °/min
Orbital period
707.43 mins
BSTAR
0
Loading maneuver chart data...
Computing Atmospheric mass density...
Loading historical data...
Loading historical data...
Loading historical data...
Loading historical data...
Loading historical data...
Loading historical data...
Loading historical data...

Documentation

Showing up to 5 results
|